STARLINK-4157, 53035

Orbit data source: Space-Track

STARLINK-4157, 53035 is a payload satellite owned by SpaceX/Seattle (US) in LEO that was launched on Thu, 07 Jul 2022 UTC via an FALCON 9 launch vehicle from the Air Force Eastern Test Range (AFETR). Payload-class satellites include a variety of spacecraft equipped with specific instruments for various scientific and technological missions. These include communications satellites like Starlink; space stations such as the ISS; scientific satellites like the Hubble; Earth observation satellites from companies like Planet Labs, Umbra, and HawkEye 360; GPS; miniature CubeSats for education and research; and military/defense satellites.

Loading next visibility...
Identifier
53035, 2022-076BB
Orbit
LEO
Country
Flag of USUS
Related business
Manufacturer
SpaceX/Seattle
Mission
Operational Commercial Communications
Bus & Motor
STARLINK, Unknown motor
Mass
297 kg wet, ~275 kg dry
Launch date (UTC)
2022-07-07 (3 years ago)
Launch vehicle
FALCON 9
Launch site
Air Force Eastern Test Range (AFETR)
Object type
Payload
Rocket body
Debris
Shape & HBR
Box + 1 Pan, 10.1 m
Radar Cross Section
13.562 m², Large (>1 m²)

Expand to show TLE details & history
Last TLE update: 16 hours ago

TLE from 16 hours ago
0 STARLINK-4157
1 53035U 22076BB  25340.74905068  .00000368  00000-0  41210-4 0  9995
2 53035  53.2166 131.3482 0001477  86.3873 273.7288 15.08837980189090
Epoch: 2025-12-06T17:58Z
TLE epoch observation values (Epoch: 2025-12-06T17:58:37.978Z)
Latitude
-0.00004°
Longitude
145.9176°
Altitude
540.581 km
Speed
7.593 km/s
True Right ascension
08h 45m 23s
True Declination
0° 00' 00"
Sunlit
Object was in full shadow at epoch
Visualization orbit readout
Latitude
Unknown
Longitude
Unknown
Altitude
Unknown
Speed
Unknown
Apparent Right ascension
Unknown
Apparent Declination
Unknown
Sunlit
N/A
Visualization observer readout
Local Sidereal Time
08:31:51
Azimuth
Unknown
Elevation
Unknown
Doppler factor
Unknown
Orbital elements
Apogee altitude
541.016 km
Perigee altitude
538.973 km
Semi-major axis
6,918.132 km
Eccentricity
0.00015
Inclination
53.2166°
RAAN
131.3482°
Arg. of periapsis
86.3873°
True anomaly
273.71191°
Mean anomaly
273.7288°
Eccentric anomaly
273.72036°
Mean motion
3.7719 °/min
Orbital period
95.44 mins
BSTAR
0.00004121
Loading maneuver chart data...
Computing Atmospheric mass density...
Loading historical data...
Loading historical data...
Loading historical data...
Loading historical data...
Loading historical data...
Loading historical data...
Loading historical data...

Documentation

Showing up to 5 results
|